When you browse on this site, cookies collect data to enhance your experience and personalize the content and advertising you see.
Visit our Privacy Policy to learn more. By continuing to use the site, you agree to this use of cookies and data.
  • En España
  • Lista de países
  • Para 7 días
  • Temperatura del agua
  • El tiempo en el mapa
  • Informadores
  • user-avatar
    Iniciar sesión

    Tiempo cada hora Biatris

    Hoy, 29 Febrero, Sábado

    Tiempo Temperatura Precipitaciones Viento Presión Humedad
    00:00 +19°C° 0 mm 4 mps 653 mmHg 74%
    01:00 +19°C° 0 mm 3 mps 653 mmHg 77%
    02:00 +18°C° 0 mm 3 mps 653 mmHg 80%
    03:00 +18°C° 0 mm 3 mps 653 mmHg 83%
    04:00 +18°C° 0 mm 4 mps 653 mmHg 87%
    05:00 +17°C° 0 mm 4 mps 653 mmHg 90%
    06:00 +17°C° 0 mm 5 mps 653 mmHg 86%
    07:00 +19°C° 0 mm 5 mps 654 mmHg 82%
    08:00 +20°C° 0 mm 5 mps 655 mmHg 79%
    09:00 +22°C° 0.1 mm 5 mps 655 mmHg 74%
    10:00 +23°C° 0.1 mm 5 mps 656 mmHg 68%
    11:00 +25°C° 0.1 mm 5 mps 656 mmHg 63%
    12:00 +25°C° 0.1 mm 5 mps 655 mmHg 62%
    13:00 +26°C° 0.1 mm 6 mps 655 mmHg 61%
    14:00 +26°C° 0.1 mm 6 mps 654 mmHg 61%
    15:00 +24°C° 0 mm 6 mps 654 mmHg 64%
    16:00 +23°C° 0 mm 6 mps 653 mmHg 67%
    17:00 +22°C° 0 mm 6 mps 652 mmHg 70%
    18:00 +21°C° 0 mm 6 mps 653 mmHg 73%
    19:00 +19°C° 0 mm 5 mps 653 mmHg 77%
    20:00 +17°C° 0 mm 5 mps 654 mmHg 80%
    21:00 +17°C° 0 mm 5 mps 654 mmHg 80%
    22:00 +17°C° 0 mm 5 mps 654 mmHg 81%
    23:00 +17°C° 0 mm 5 mps 654 mmHg 81%

    Mañana, 1 Marzo, Domingo

    Tiempo Temperatura Precipitaciones Viento Presión Humedad
    00:00 +17°C° 0 mm 5 mps 654 mmHg 83%
    01:00 +16°C° 0 mm 5 mps 654 mmHg 84%
    02:00 +16°C° 0 mm 5 mps 654 mmHg 86%
    03:00 +16°C° 0 mm 5 mps 653 mmHg 84%
    04:00 +16°C° 0 mm 5 mps 653 mmHg 81%
    05:00 +16°C° 0 mm 5 mps 653 mmHg 79%
    06:00 +17°C° 0 mm 5 mps 653 mmHg 78%
    07:00 +17°C° 0 mm 5 mps 654 mmHg 77%
    08:00 +19°C° 0 mm 5 mps 654 mmHg 76%
    09:00 +20°C° 0 mm 4 mps 655 mmHg 71%
    10:00 +22°C° 0 mm 4 mps 655 mmHg 66%
    11:00 +23°C° 0 mm 4 mps 655 mmHg 61%
    12:00 +25°C° 0 mm 4 mps 655 mmHg 58%
    13:00 +26°C° 0 mm 3 mps 655 mmHg 56%
    14:00 +27°C° 0 mm 3 mps 654 mmHg 53%
    15:00 +25°C° 0 mm 3 mps 654 mmHg 57%
    16:00 +23°C° 0 mm 4 mps 653 mmHg 62%
    17:00 +22°C° 0 mm 5 mps 652 mmHg 66%
    18:00 +20°C° 0 mm 4 mps 652 mmHg 72%
    19:00 +18°C° 0 mm 4 mps 652 mmHg 77%
    20:00 +17°C° 0 mm 3 mps 653 mmHg 82%
    21:00 +16°C° 0 mm 3 mps 653 mmHg 85%
    22:00 +16°C° 0 mm 3 mps 653 mmHg 87%
    23:00 +16°C° 0 mm 3 mps 653 mmHg 90%

    Pasado mañana, 2 Marzo, Lunes

    Tiempo Temperatura Precipitaciones Viento Presión Humedad
    00:00 +14°C° 0 mm 3 mps 653 mmHg 91%
    01:00 +15°C° 0 mm 2 mps 652 mmHg 93%
    02:00 +14°C° 0 mm 2 mps 652 mmHg 94%
    03:00 +14°C° 0 mm 2 mps 652 mmHg 95%
    04:00 +14°C° 0 mm 1 mps 652 mmHg 95%
    05:00 +14°C° 0 mm 1 mps 652 mmHg 96%
    06:00 +15°C° 0 mm 1 mps 652 mmHg 89%
    07:00 +17°C° 0 mm 2 mps 653 mmHg 82%
    08:00 +18°C° 0 mm 2 mps 654 mmHg 75%
    09:00 +22°C° 0 mm 1 mps 655 mmHg 67%
    10:00 +25°C° 0 mm 1 mps 655 mmHg 59%
    11:00 +27°C° 0 mm 1 mps 656 mmHg 51%
    12:00 +28°C° 0 mm 1 mps 655 mmHg 48%
    13:00 +28°C° 0 mm 1 mps 655 mmHg 46%
    14:00 +29°C° 0 mm 1 mps 654 mmHg 44%
    15:00 +28°C° 0 mm 1 mps 654 mmHg 47%
    16:00 +27°C° 0 mm 2 mps 653 mmHg 51%
    17:00 +25°C° 0 mm 2 mps 653 mmHg 55%
    18:00 +22°C° 0 mm 3 mps 653 mmHg 61%
    19:00 +21°C° 0 mm 3 mps 653 mmHg 67%
    20:00 +19°C° 0 mm 3 mps 653 mmHg 74%
    21:00 +18°C° 0 mm 2 mps 653 mmHg 76%
    22:00 +18°C° 0 mm 2 mps 653 mmHg 79%
    23:00 +18°C° 0 mm 2 mps 654 mmHg 82%

    3 Marzo, Martes

    Tiempo Temperatura Precipitaciones Viento Presión Humedad
    00:00 +18°C° 0 mm 1 mps 653 mmHg 86%
    01:00 +18°C° 0 mm 1 mps 653 mmHg 90%
    02:00 +16°C° 0 mm 1 mps 653 mmHg 94%
    03:00 +16°C° 0 mm 1 mps 653 mmHg 94%
    04:00 +16°C° 0 mm 1 mps 653 mmHg 94%
    05:00 +16°C° 0 mm 1 mps 653 mmHg 95%
    06:00 +19°C° 0 mm 1 mps 653 mmHg 90%
    07:00 +20°C° 0 mm 1 mps 654 mmHg 84%
    08:00 +21°C° 0 mm 1 mps 655 mmHg 79%
    09:00 +24°C° 0 mm 1 mps 655 mmHg 68%
    10:00 +26°C° 0 mm 1 mps 656 mmHg 58%
    11:00 +29°C° 0 mm 1 mps 656 mmHg 47%
    12:00 +29°C° 0 mm 1 mps 656 mmHg 45%
    13:00 +29°C° 0 mm 1 mps 655 mmHg 42%
    14:00 +29°C° 0 mm 2 mps 655 mmHg 40%
    15:00 +28°C° 0 mm 2 mps 654 mmHg 44%
    16:00 +26°C° 0 mm 3 mps 654 mmHg 49%
    17:00 +25°C° 0 mm 4 mps 653 mmHg 53%
    18:00 +23°C° 0 mm 4 mps 654 mmHg 58%
    19:00 +21°C° 0 mm 4 mps 654 mmHg 62%
    20:00 +20°C° 0 mm 4 mps 654 mmHg 66%
    21:00 +19°C° 0 mm 3 mps 654 mmHg 71%
    22:00 +18°C° 0 mm 3 mps 655 mmHg 76%
    23:00 +17°C° 0 mm 2 mps 655 mmHg 80%

    4 Marzo, Miércoles

    Tiempo Temperatura Precipitaciones Viento Presión Humedad
    00:00 +17°C° 0 mm 2 mps 655 mmHg 83%
    01:00 +17°C° 0 mm 2 mps 654 mmHg 86%
    02:00 +16°C° 0 mm 1 mps 654 mmHg 88%
    03:00 +16°C° 0 mm 1 mps 654 mmHg 89%
    04:00 +16°C° 0 mm 1 mps 654 mmHg 90%
    05:00 +15°C° 0 mm 2 mps 654 mmHg 90%
    06:00 +16°C° 0 mm 2 mps 655 mmHg 85%
    07:00 +17°C° 0 mm 3 mps 655 mmHg 80%
    08:00 +19°C° 0 mm 4 mps 656 mmHg 75%
    09:00 +21°C° 0 mm 4 mps 656 mmHg 67%
    10:00 +22°C° 0 mm 4 mps 656 mmHg 60%
    11:00 +25°C° 0 mm 4 mps 657 mmHg 53%
    12:00 +26°C° 0 mm 4 mps 656 mmHg 50%
    13:00 +27°C° 0 mm 4 mps 656 mmHg 48%
    14:00 +27°C° 0 mm 4 mps 655 mmHg 45%
    15:00 +26°C° 0 mm 4 mps 655 mmHg 49%
    16:00 +25°C° 0 mm 4 mps 654 mmHg 52%
    17:00 +23°C° 0 mm 4 mps 654 mmHg 55%
    18:00 +22°C° 0 mm 4 mps 654 mmHg 60%
    19:00 +20°C° 0 mm 4 mps 654 mmHg 65%
    20:00 +18°C° 0 mm 3 mps 654 mmHg 70%
    21:00 +17°C° 0 mm 3 mps 654 mmHg 71%
    22:00 +17°C° 0 mm 3 mps 654 mmHg 73%
    23:00 +16°C° 0 mm 2 mps 655 mmHg 74%

    5 Marzo, Jueves

    Tiempo Temperatura Precipitaciones Viento Presión Humedad
    00:00 +15°C° 0 mm 2 mps 654 mmHg 75%
    01:00 +15°C° 0 mm 2 mps 654 mmHg 76%
    02:00 +14°C° 0 mm 2 mps 653 mmHg 76%
    03:00 +14°C° 0 mm 2 mps 653 mmHg 81%
    04:00 +14°C° 0 mm 2 mps 653 mmHg 86%
    05:00 +13°C° 0 mm 2 mps 653 mmHg 91%
    06:00 +14°C° 0 mm 3 mps 654 mmHg 85%
    07:00 +17°C° 0 mm 3 mps 654 mmHg 79%
    08:00 +19°C° 0 mm 4 mps 655 mmHg 73%
    09:00 +21°C° 0 mm 3 mps 655 mmHg 64%
    10:00 +24°C° 0 mm 3 mps 656 mmHg 56%
    11:00 +26°C° 0 mm 3 mps 656 mmHg 47%
    12:00 +27°C° 0 mm 3 mps 655 mmHg 43%
    13:00 +28°C° 0 mm 2 mps 655 mmHg 40%
    14:00 +28°C° 0 mm 2 mps 655 mmHg 36%
    15:00 +27°C° 0 mm 3 mps 654 mmHg 41%
    16:00 +26°C° 0 mm 3 mps 653 mmHg 45%
    17:00 +25°C° 0 mm 4 mps 653 mmHg 49%
    18:00 +22°C° 0 mm 4 mps 653 mmHg 52%
    19:00 +20°C° 0 mm 3 mps 653 mmHg 56%
    20:00 +18°C° 0 mm 3 mps 653 mmHg 59%
    21:00 +18°C° 0 mm 3 mps 653 mmHg 62%
    22:00 +17°C° 0 mm 3 mps 653 mmHg 66%
    23:00 +16°C° 0 mm 2 mps 654 mmHg 69%
    Mostrar más